Starlink 11704

operational
NORAD ID: 64245 Int'l Des: 2025-119 Owner: SPXS Country: US Constellation: starlink
LEOCIRCULAR

Über Starlink 11704

Beschreibung wird geladen...

Live-Position

3D-Globus wird geladen...

Nächste Überflüge

Höhenverlauf

Altitude vs Time

uPlot chart will show altitude changes over time

Zweizeiliger Elementsatz

1 64245U 25119N 26095.56173686 .00333078 00000-0 24906-2 0 9990
2 64245 43.0001 46.8976 0000607 349.9997 10.0858 15.70896186 49471
Epoch: 5. Apr. 2026 • Age: 8 hours

Aktueller Status

Höhe 358.8 km
Geschwindigkeit 7.70 km/s
Subsatellitenpunkt 42.45°N, 9.57°W
Startdatum 3. Juni 2025
Alter 0.8 years
Typ internet

Technische Details

Klassifizierung Payload
Masse 960.00 kg
Trockenmasse 910.00 kg
Gesamtmasse 960.00 kg
Länge 0.30 m
Durchmesser 4.10 m
Spannweite 29.00 m
Form Box + pan
Hersteller SPXS
Bus-Typ Starlink V2MD
Phasenstatus In Orbit
Besitzer/Staat SPXS/US

Große Konstellationen

Loading constellations...